Location: Unspecified
(50.1700°N, 6.8600°E)
Time: 20:40:12
(UTC+00:00)

Cosmos 2084 - Pass Details

Date: 24 January 2019
Orbit: 527 x 656 km, 62.8° (Epoch: 22 February)

Event Time Altitude Azimuth Distance (km) Brightness Sun altitude
Exits shadow 05:45:34 23° 309° (NW) 1,190 4.5 -14.5°
Maximum altitude 05:48:00 71° 229° (SW) 569 3.2 -14.1°
Drops below altitude 10° 05:51:57 10° 146° (SE) 1,770 6.6 -13.5°
Sets 05:54:07 0° 144° (SE) 2,652 7.7 -13.2°
